STARLINK-38065, 69982

Orbit data source: Space-Track

STARLINK-38065, 69982 is a payload satellite owned by SpaceX/Seattle (US) in SSO that was launched on Sat, 11 Jul 2026 UTC via an FALCON 9 launch vehicle from the Air Force Western Test Range (AFWTR). Payload-class satellites include a variety of spacecraft equipped with specific instruments for various scientific and technological missions. These include communications satellites like Starlink; space stations such as the ISS; scientific satellites like the Hubble; Earth observation satellites from companies like Planet Labs, Umbra, and HawkEye 360; GPS; miniature CubeSats for education and research; and military/defense satellites.

Loading next visibility...
Identifier
69982, 2026-159H
Orbit
SSO
Country
Flag of USUS
Related business
Manufacturer
SpaceX/Seattle
Mission
Operational spacecraft
Bus & Motor
STARLINK V2MO, Unknown motor
Mass
575 kg wet, ~530 kg dry
Launch date (UTC)
2026-07-11 (1 month ago)
Launch vehicle
FALCON 9
Launch site
Air Force Western Test Range (AFWTR)
Object type
Payload
Rocket body
Debris
Shape & HBR
BOX + PAN, 17.7 m
Radar Cross Section
Large (>1 m²)

Expand to show TLE details & history
Last TLE update: 13 hours ago

TLE from 13 hours ago
0 STARLINK-38065
1 69982U 26159H   26228.49947394  .00112139  00000-0  74157-3 0  9990
2 69982  97.2845  68.8382 0001657  91.6197 268.5258 15.75230031  6951
Epoch: 2026-08-16T11:59Z
TLE epoch observation values (Epoch: 2026-08-16T11:59:14.548Z)
Latitude
-0.00003°
Longitude
-75.86753°
Altitude
347.174 km
Speed
7.701 km/s
True Right ascension
04h 35m 21s
True Declination
0° 00' 00"
Sunlit
Object was in daylight at epoch
Visualization orbit readout
Latitude
Unknown
Longitude
Unknown
Altitude
Unknown
Speed
Unknown
Apparent Right ascension
Unknown
Apparent Declination
Unknown
Sunlit
N/A
Visualization observer readout
Local Sidereal Time
16:02:03
Azimuth
Unknown
Elevation
Unknown
Doppler factor
Unknown
Orbital elements
Apogee altitude
341.977 km
Perigee altitude
339.751 km
Semi-major axis
6,719.001 km
Eccentricity
0.00017
Inclination
97.2845°
RAAN
68.8382°
Arg. of periapsis
91.6197°
True anomaly
268.50682°
Mean anomaly
268.5258°
Eccentric anomaly
268.51631°
Mean motion
3.94082 °/min
Orbital period
91.35 mins
BSTAR
0.00074157
Loading maneuver chart data...
Computing Atmospheric mass density...
Loading historical data...
Loading historical data...
Loading historical data...
Loading historical data...
Loading historical data...
Loading historical data...
Loading historical data...

Documentation

Showing up to 5 results
|